CALSPHERE 1 1 00900U 64063C 26175.15109740 .00000495 00000+0 49499-3 0 9991 2 00900 90.2231 71.9350 0023369 274.3558 181.4995 13.76630305 72381 CALSPHERE 2 1 00902U 64063E 26174.97307185 .00000034 00000+0 38721-4 0 9991 2 00902 90.2370 75.9584 0017640 202.1113 169.0216 13.52900592857180 LCS 1 1 01361U 65034C 26175.24019411 .00000021 00000+0 16920-2 0 9994 2 01361 32.1355 160.2755 0012284 148.0110 212.1134 9.89310773210587 TEMPSAT 1 1 01512U 65065E 26175.11370525 .00000023 00000+0 29701-4 0 9993 2 01512 89.9983 212.5947 0068182 228.1027 187.6710 13.33594381960975 CALSPHERE 4A 1 01520U 65065H 26175.19762939 .00000099 00000+0 17025-3 0 9992 2 01520 89.8986 122.4187 0072143 83.7012 22.5068 13.36279602963641 OPS 5712 (P/L 160) 1 02826U 67053A 26175.15586300 .00006153 00000+0 86561-3 0 9991 2 02826 69.9176 21.2144 0000876 293.9634 66.1422 14.77793612 67268 OPS 5712 (P/L 153) 1 02874U 67053H 26175.14104332 .00000018 00000+0 50922-4 0 9991 2 02874 69.9740 100.4021 0008132 206.0385 154.0313 13.96829210 7762 RIGIDSPHERE 2 (LCS 4) 1 05398U 71067E 26175.22066385 .00000626 00000+0 19780-3 0 9990 2 05398 87.6217 336.8550 0058844 207.5538 152.2540 14.37874692874893 COSMOS 2493 (SKRL-756 1) 1 39490U 13078A 26175.21263801 .00002188 00000+0 16397-3 0 9995 2 39490 82.4120 254.3135 0012150 213.7720 146.2732 15.02188857679011 COSMOS 2494 (SKRL-756 2) 1 39491U 13078B 26175.26450586 .00003206 00000+0 22411-3 0 9995 2 39491 82.4114 243.6222 0016183 175.4637 184.6739 15.04899470679873